Tracking 29892 objects as of 21-Nov-2024
HD Live streaming from Space Station
objects crossing your sky now

STARLINK-5642

Track STARLINK-5642 now!
10-day predictions
STARLINK-5642 is classified as:


NORAD ID: 55430
Int'l Code: 2023-014AR
Perigee: 577.5 km
Apogee: 580.8 km
Inclination: 70.0 °
Period: 96.1 minutes
Semi major axis: 6950 km
RCS: Unknown
Launch date: January 31, 2023
Source: United States (US)
Launch site: AIR FORCE WESTERN TEST RANGE (AFWTR)
Your satellite tracking list
Your tracking list is empty




NASA's NSSDC Master Catalog

Two Line Element Set (TLE):
1 55430U 23014AR  24325.11301846  .00002493  00000-0  21651-3 0  9993
2 55430  69.9999 220.9514 0002370 273.3651  86.7237 14.98351513 99980
Source of the keplerian elements: AFSPC